Time,TemperatureF,DewpointF,PressureIn,WindDirection,WindDirectionDegrees,WindSpeedMPH,WindSpeedGustMPH,Humidity,HourlyPrecipIn,Conditions,Clouds,dailyrainin,SoftwareType,DateUTC
2013-02-20 00:01:00,43.1,42.0,29.57,WSW,256,2.0,5.0,95,0.01,,,0.00,weatherlink.com 1.10,2013-02-20 05:01:00,
2013-02-20 00:16:00,42.8,41.0,29.57,SW,232,2.0,4.0,94,0.01,,,0.00,weatherlink.com 1.10,2013-02-20 05:16:00,
2013-02-20 00:31:00,42.5,41.0,29.56,West,267,3.0,5.0,93,0.01,,,0.00,weatherlink.com 1.10,2013-02-20 05:31:00,
2013-02-20 00:47:00,42.1,40.0,29.55,WNW,301,2.0,4.0,93,0.00,,,0.00,weatherlink.com 1.10,2013-02-20 05:47:00,
2013-02-20 01:01:00,41.7,40.0,29.54,SW,224,0.0,3.0,92,0.00,,,0.00,weatherlink.com 1.10,2013-02-20 06:01:00,
2013-02-20 01:16:00,41.4,40.0,29.53,SW,236,0.0,1.0,93,0.00,,,0.00,weatherlink.com 1.10,2013-02-20 06:16:00,
2013-02-20 01:31:00,40.6,39.0,29.55,West,273,1.0,5.0,94,0.00,,,0.00,weatherlink.com 1.10,2013-02-20 06:31:00,
2013-02-20 01:46:00,40.7,39.0,29.54,West,271,3.0,6.0,93,0.00,,,0.00,weatherlink.com 1.10,2013-02-20 06:46:00,
2013-02-20 02:01:00,40.5,39.0,29.55,WNW,292,4.0,8.0,93,0.00,,,0.00,weatherlink.com 1.10,2013-02-20 07:01:00,
2013-02-20 02:16:00,40.2,38.0,29.55,South,176,3.0,-999.0,92,-99.99,,,0.00,weatherlink.com 1.10,2013-02-20 07:16:00,
2013-02-20 02:31:00,40.0,38.0,29.54,West,271,2.0,5.0,92,0.00,,,0.00,weatherlink.com 1.10,2013-02-20 07:31:00,
2013-02-20 02:46:00,39.7,37.0,29.54,NW,309,4.0,8.0,91,0.00,,,0.00,weatherlink.com 1.10,2013-02-20 07:46:00,
2013-02-20 03:17:00,39.0,37.0,29.54,West,277,3.0,5.0,92,0.00,,,0.00,weatherlink.com 1.10,2013-02-20 08:17:00,
2013-02-20 03:32:00,39.0,37.0,29.53,West,271,4.0,7.0,92,0.00,,,0.00,weatherlink.com 1.10,2013-02-20 08:32:00,
2013-02-20 03:47:00,39.1,37.0,29.54,West,281,4.0,10.0,90,0.00,,,0.00,weatherlink.com 1.10,2013-02-20 08:47:00,
2013-02-20 04:02:00,37.9,34.0,29.55,NW,314,4.0,13.0,85,0.00,,,0.00,weatherlink.com 1.10,2013-02-20 09:02:00,
2013-02-20 04:17:00,37.2,32.0,29.55,WNW,303,3.0,11.0,82,0.00,,,0.00,weatherlink.com 1.10,2013-02-20 09:17:00,
2013-02-20 04:32:00,36.7,32.0,29.56,West,264,5.0,10.0,84,0.00,,,0.00,weatherlink.com 1.10,2013-02-20 09:32:00,
2013-02-20 04:47:00,36.1,31.0,29.56,SW,228,3.0,12.0,82,0.00,,,0.00,weatherlink.com 1.10,2013-02-20 09:47:00,
2013-02-20 05:02:00,35.6,31.0,29.57,West,260,3.0,7.0,84,0.00,,,0.00,weatherlink.com 1.10,2013-02-20 10:02:00,
2013-02-20 05:17:00,35.1,30.0,29.57,West,281,2.0,10.0,83,0.00,,,0.00,weatherlink.com 1.10,2013-02-20 10:17:00,
2013-02-20 05:32:00,34.6,29.0,29.58,NNW,338,7.0,11.0,81,0.00,,,0.00,weatherlink.com 1.10,2013-02-20 10:32:00,
2013-02-20 05:47:00,34.2,28.0,29.58,WSW,257,5.0,12.0,77,0.00,,,0.00,weatherlink.com 1.10,2013-02-20 10:47:00,
2013-02-20 06:02:00,33.9,26.0,29.59,WSW,248,8.0,14.0,74,0.00,,,0.00,weatherlink.com 1.10,2013-02-20 11:02:00,
2013-02-20 06:17:00,33.6,26.0,29.60,WNW,285,2.0,12.0,73,0.00,,,0.00,weatherlink.com 1.10,2013-02-20 11:17:00,
2013-02-20 06:33:00,33.3,26.0,29.60,West,268,3.0,7.0,73,0.00,,,0.00,weatherlink.com 1.10,2013-02-20 11:33:00,
2013-02-20 06:47:00,33.3,25.0,29.61,SSW,211,1.0,15.0,71,0.00,,,0.00,weatherlink.com 1.10,2013-02-20 11:47:00,
2013-02-20 07:02:00,33.1,24.0,29.61,West,280,5.0,13.0,69,0.00,,,0.00,weatherlink.com 1.10,2013-02-20 12:02:00,
2013-02-20 07:17:00,32.7,22.0,29.62,West,268,5.0,15.0,65,0.00,,,0.00,weatherlink.com 1.10,2013-02-20 12:17:00,
2013-02-20 07:32:00,32.2,21.0,29.64,West,271,4.0,16.0,63,0.00,,,0.00,weatherlink.com 1.10,2013-02-20 12:32:00,
2013-02-20 07:47:00,32.1,21.0,29.64,WNW,284,3.0,16.0,64,0.00,,,0.00,weatherlink.com 1.10,2013-02-20 12:47:00,
2013-02-20 08:02:00,32.4,21.0,29.64,WNW,301,4.0,18.0,62,0.00,,,0.00,weatherlink.com 1.10,2013-02-20 13:02:00,
2013-02-20 08:17:00,32.5,20.0,29.64,WNW,288,5.0,18.0,61,0.00,,,0.00,weatherlink.com 1.10,2013-02-20 13:17:00,
2013-02-20 08:33:00,32.9,21.0,29.64,WSW,257,3.0,13.0,61,0.00,,,0.00,weatherlink.com 1.10,2013-02-20 13:33:00,
2013-02-20 08:48:00,33.0,20.0,29.64,WNW,284,10.0,17.0,60,0.00,,,0.00,weatherlink.com 1.10,2013-02-20 13:48:00,
2013-02-20 09:03:00,33.1,20.0,29.64,South,190,2.0,19.0,59,0.00,,,0.00,weatherlink.com 1.10,2013-02-20 14:03:00,
2013-02-20 09:18:00,33.7,20.0,29.65,WNW,286,7.0,14.0,58,0.00,,,0.00,weatherlink.com 1.10,2013-02-20 14:18:00,
2013-02-20 09:33:00,34.0,20.0,29.65,West,277,7.0,15.0,57,0.00,,,0.00,weatherlink.com 1.10,2013-02-20 14:33:00,
2013-02-20 09:48:00,34.0,20.0,29.65,WNW,285,6.0,15.0,56,0.00,,,0.00,weatherlink.com 1.10,2013-02-20 14:48:00,
2013-02-20 10:03:00,33.8,19.0,29.65,West,277,10.0,22.0,54,0.00,,,0.00,weatherlink.com 1.10,2013-02-20 15:03:00,
2013-02-20 10:18:00,34.3,19.0,29.65,WSW,256,6.0,12.0,54,0.00,,,0.00,weatherlink.com 1.10,2013-02-20 15:18:00,
2013-02-20 10:33:00,34.0,18.0,29.65,WNW,295,8.0,26.0,52,0.00,,,0.00,weatherlink.com 1.10,2013-02-20 15:33:00,
2013-02-20 10:48:00,34.4,18.0,29.65,SW,231,3.0,16.0,51,0.00,,,0.00,weatherlink.com 1.10,2013-02-20 15:48:00,
2013-02-20 11:03:00,34.7,18.0,29.65,WNW,287,11.0,17.0,51,0.00,,,0.00,weatherlink.com 1.10,2013-02-20 16:03:00,
2013-02-20 11:18:00,34.3,19.0,29.65,West,266,8.0,15.0,54,0.00,,,0.00,weatherlink.com 1.10,2013-02-20 16:18:00,
2013-02-20 11:33:00,34.5,18.0,29.65,WNW,301,7.0,15.0,51,0.00,,,0.00,weatherlink.com 1.10,2013-02-20 16:33:00,
2013-02-20 12:03:00,33.8,17.0,29.64,West,269,8.0,16.0,50,0.00,,,0.00,weatherlink.com 1.10,2013-02-20 17:03:00,
2013-02-20 12:18:00,35.0,17.0,29.64,West,274,8.0,21.0,48,0.00,,,0.00,weatherlink.com 1.10,2013-02-20 17:18:00,
2013-02-20 12:33:00,34.3,16.0,29.64,SE,134,4.0,17.0,48,0.00,,,0.00,weatherlink.com 1.10,2013-02-20 17:33:00,
2013-02-20 12:48:00,33.9,15.0,29.63,WSW,250,14.0,21.0,46,0.00,,,0.00,weatherlink.com 1.10,2013-02-20 17:48:00,
2013-02-20 13:03:00,33.8,15.0,29.63,West,263,9.0,18.0,47,0.00,,,0.00,weatherlink.com 1.10,2013-02-20 18:03:00,
2013-02-20 13:18:00,34.1,15.0,29.62,West,262,10.0,15.0,46,0.00,,,0.00,weatherlink.com 1.10,2013-02-20 18:18:00,
2013-02-20 13:48:00,33.7,15.0,29.63,ENE,59,2.0,12.0,46,0.00,,,0.00,weatherlink.com 1.10,2013-02-20 18:48:00,
2013-02-20 14:03:00,33.5,15.0,29.63,ESE,108,11.0,18.0,46,0.00,,,0.00,weatherlink.com 1.10,2013-02-20 19:03:00,
2013-02-20 14:18:00,33.4,14.0,29.63,WNW,293,4.0,15.0,45,0.00,,,0.00,weatherlink.com 1.10,2013-02-20 19:18:00,
2013-02-20 14:33:00,33.3,14.0,29.63,WSW,252,7.0,17.0,45,0.00,,,0.00,weatherlink.com 1.10,2013-02-20 19:33:00,
2013-02-20 14:48:00,32.9,14.0,29.64,West,260,5.0,18.0,45,0.00,,,0.00,weatherlink.com 1.10,2013-02-20 19:48:00,
2013-02-20 15:03:00,32.9,13.0,29.64,SE,145,2.0,16.0,44,0.00,,,0.00,weatherlink.com 1.10,2013-02-20 20:03:00,
2013-02-20 15:18:00,33.2,13.0,29.64,WNW,285,9.0,15.0,43,0.00,,,0.00,weatherlink.com 1.10,2013-02-20 20:18:00,
2013-02-20 15:49:00,33.8,12.0,29.64,West,278,6.0,22.0,40,0.00,,,0.00,weatherlink.com 1.10,2013-02-20 20:49:00,
2013-02-20 16:04:00,33.4,11.0,29.65,NW,314,9.0,16.0,39,0.00,,,0.00,weatherlink.com 1.10,2013-02-20 21:04:00,
2013-02-20 16:18:00,32.4,11.0,29.65,West,263,10.0,24.0,41,0.00,,,0.00,weatherlink.com 1.10,2013-02-20 21:18:00,
2013-02-20 16:33:00,32.4,12.0,29.65,West,277,4.0,14.0,42,0.00,,,0.00,weatherlink.com 1.10,2013-02-20 21:33:00,
2013-02-20 16:48:00,31.9,11.0,29.66,WNW,296,15.0,17.0,41,0.00,,,0.00,weatherlink.com 1.10,2013-02-20 21:48:00,
2013-02-20 17:03:00,31.2,11.0,29.67,West,264,6.0,15.0,43,0.00,,,0.00,weatherlink.com 1.10,2013-02-20 22:03:00,
2013-02-20 17:19:00,30.7,11.0,29.68,West,279,6.0,20.0,44,0.00,,,0.00,weatherlink.com 1.10,2013-02-20 22:19:00,
2013-02-20 17:34:00,30.2,11.0,29.68,WNW,284,8.0,17.0,45,0.00,,,0.00,weatherlink.com 1.10,2013-02-20 22:34:00,
2013-02-20 17:49:00,29.8,11.0,29.69,West,281,9.0,18.0,46,0.00,,,0.00,weatherlink.com 1.10,2013-02-20 22:49:00,
2013-02-20 18:04:00,29.5,11.0,29.69,WSW,245,14.0,19.0,47,0.00,,,0.00,weatherlink.com 1.10,2013-02-20 23:04:00,
2013-02-20 18:20:00,29.2,12.0,29.70,WNW,285,7.0,15.0,48,0.00,,,0.00,weatherlink.com 1.10,2013-02-20 23:20:00,
2013-02-20 18:34:00,29.1,12.0,29.70,WNW,284,4.0,22.0,48,0.00,,,0.00,weatherlink.com 1.10,2013-02-20 23:34:00,
2013-02-20 18:49:00,28.9,11.0,29.71,NW,312,4.0,16.0,48,0.00,,,0.00,weatherlink.com 1.10,2013-02-20 23:49:00,
2013-02-20 19:04:00,28.7,11.0,29.71,WNW,287,6.0,18.0,48,0.00,,,0.00,weatherlink.com 1.10,2013-02-21 00:04:00,
2013-02-20 19:19:00,28.5,11.0,29.71,NW,311,6.0,11.0,49,0.00,,,0.00,weatherlink.com 1.10,2013-02-21 00:19:00,
2013-02-20 19:34:00,28.3,12.0,29.71,West,269,9.0,17.0,50,0.00,,,0.00,weatherlink.com 1.10,2013-02-21 00:34:00,
2013-02-20 19:49:00,28.3,12.0,29.71,West,263,11.0,17.0,50,0.00,,,0.00,weatherlink.com 1.10,2013-02-21 00:49:00,
2013-02-20 20:04:00,28.3,12.0,29.72,NE,34,1.0,20.0,51,0.00,,,0.00,weatherlink.com 1.10,2013-02-21 01:04:00,
2013-02-20 20:19:00,28.3,12.0,29.72,NW,326,3.0,14.0,51,0.00,,,0.00,weatherlink.com 1.10,2013-02-21 01:19:00,
2013-02-20 20:34:00,28.4,13.0,29.72,West,269,5.0,11.0,52,0.00,,,0.00,weatherlink.com 1.10,2013-02-21 01:34:00,
2013-02-20 20:49:00,28.3,13.0,29.73,WNW,290,5.0,19.0,53,0.00,,,0.00,weatherlink.com 1.10,2013-02-21 01:49:00,
2013-02-20 21:04:00,28.0,13.0,29.73,WNW,287,5.0,14.0,54,0.00,,,0.00,weatherlink.com 1.10,2013-02-21 02:04:00,
2013-02-20 21:19:00,27.7,13.0,29.73,West,271,5.0,10.0,55,0.00,,,0.00,weatherlink.com 1.10,2013-02-21 02:19:00,
2013-02-20 21:34:00,27.4,13.0,29.74,WNW,296,2.0,8.0,56,0.00,,,0.00,weatherlink.com 1.10,2013-02-21 02:34:00,
2013-02-20 21:49:00,27.2,14.0,29.74,WNW,290,6.0,11.0,57,0.00,,,0.00,weatherlink.com 1.10,2013-02-21 02:49:00,
2013-02-20 22:04:00,27.0,14.0,29.74,West,281,9.0,13.0,58,0.00,,,0.00,weatherlink.com 1.10,2013-02-21 03:04:00,
2013-02-20 22:19:00,26.9,14.0,29.75,WSW,244,3.0,11.0,59,0.00,,,0.00,weatherlink.com 1.10,2013-02-21 03:19:00,
2013-02-20 22:34:00,27.0,14.0,29.76,SE,138,1.0,12.0,58,0.00,,,0.00,weatherlink.com 1.10,2013-02-21 03:34:00,
2013-02-20 22:50:00,27.0,14.0,29.76,West,274,5.0,11.0,59,0.00,,,0.00,weatherlink.com 1.10,2013-02-21 03:50:00,
2013-02-20 23:05:00,27.1,15.0,29.77,WNW,284,6.0,15.0,60,0.00,,,0.00,weatherlink.com 1.10,2013-02-21 04:05:00,
2013-02-20 23:19:00,27.2,15.0,29.77,SE,146,4.0,18.0,60,0.00,,,0.00,weatherlink.com 1.10,2013-02-21 04:19:00,
2013-02-20 23:35:00,27.2,15.0,29.77,West,277,4.0,10.0,61,0.00,,,0.00,weatherlink.com 1.10,2013-02-21 04:35:00,
2013-02-20 23:49:00,27.3,15.0,29.77,WNW,296,4.0,10.0,61,0.00,,,0.00,weatherlink.com 1.10,2013-02-21 04:49:00,